• In Hungary
  • List of Countries
  • For 7 days
  • Water Temperature
  • Satellite Maps
  • Weather Map
  • News
  • Weather Widgets
  • user-avatar
    Login

    Hourly Weather Kyrdzhali

    Today, 24 October, Tuesday

    Time Temperature Precipitation Wind Pressure Humidity
    00:00 +15°C° 1.4 mm 2 mps 716 mmHg 87%
    01:00 +15°C° 1.4 mm 2 mps 716 mmHg 88%
    02:00 +15°C° 0 mm 2 mps 715 mmHg 88%
    03:00 +14°C° 1.4 mm 2 mps 715 mmHg 89%
    04:00 +14°C° 1.4 mm 2 mps 715 mmHg 89%
    05:00 +14°C° 1.4 mm 1 mps 715 mmHg 90%
    06:00 +14°C° 0.3 mm 1 mps 715 mmHg 88%
    07:00 +15°C° 0.3 mm 1 mps 716 mmHg 86%
    08:00 +15°C° 0.3 mm 1 mps 716 mmHg 84%
    09:00 +16°C° 0.4 mm 2 mps 716 mmHg 77%
    10:00 +17°C° 0.4 mm 2 mps 717 mmHg 69%
    11:00 +18°C° 0.4 mm 2 mps 717 mmHg 61%
    12:00 +19°C° 0.6 mm 3 mps 717 mmHg 59%
    13:00 +19°C° 0.6 mm 3 mps 718 mmHg 56%
    14:00 +19°C° 0.6 mm 3 mps 718 mmHg 54%
    15:00 +18°C° 0.4 mm 3 mps 718 mmHg 59%
    16:00 +17°C° 0.4 mm 3 mps 718 mmHg 65%
    17:00 +16°C° 0.4 mm 2 mps 719 mmHg 70%
    18:00 +15°C° 0.2 mm 2 mps 719 mmHg 73%
    19:00 +14°C° 0.2 mm 2 mps 720 mmHg 77%
    20:00 +14°C° 0.2 mm 1 mps 720 mmHg 81%
    21:00 +13°C° 0.4 mm 1 mps 721 mmHg 82%
    22:00 +13°C° 0.4 mm 2 mps 722 mmHg 83%
    23:00 +13°C° 0.4 mm 2 mps 722 mmHg 85%

    Tomorrow, 25 October, Wednesday

    Time Temperature Precipitation Wind Pressure Humidity
    00:00 +12°C° 0.4 mm 2 mps 723 mmHg 87%
    01:00 +12°C° 0.4 mm 2 mps 723 mmHg 89%
    02:00 +12°C° 0.4 mm 2 mps 724 mmHg 91%
    03:00 +12°C° 0.5 mm 2 mps 724 mmHg 91%
    04:00 +11°C° 0.5 mm 3 mps 725 mmHg 91%
    05:00 +11°C° 0.5 mm 3 mps 725 mmHg 92%
    06:00 +11°C° 1 mm 3 mps 726 mmHg 91%
    07:00 +12°C° 1 mm 4 mps 726 mmHg 90%
    08:00 +12°C° 1 mm 5 mps 727 mmHg 89%
    09:00 +10°C° 0.5 mm 5 mps 728 mmHg 88%
    10:00 +10°C° 0.5 mm 5 mps 728 mmHg 87%
    11:00 +10°C° 0.5 mm 5 mps 729 mmHg 86%
    12:00 +9°C° 0.2 mm 5 mps 729 mmHg 85%
    13:00 +9°C° 0.2 mm 5 mps 730 mmHg 84%
    14:00 +9°C° 0.2 mm 5 mps 730 mmHg 84%
    15:00 +9°C° 0.1 mm 5 mps 730 mmHg 83%
    16:00 +10°C° 0.1 mm 4 mps 730 mmHg 82%
    17:00 +8°C° 0.1 mm 4 mps 731 mmHg 82%
    18:00 +8°C° 0.1 mm 4 mps 731 mmHg 82%
    19:00 +8°C° 0.1 mm 4 mps 732 mmHg 82%
    20:00 +8°C° 0.1 mm 4 mps 732 mmHg 82%
    21:00 +8°C° 0.1 mm 4 mps 733 mmHg 82%
    22:00 +7°C° 0.1 mm 4 mps 733 mmHg 82%
    23:00 +7°C° 0.1 mm 4 mps 733 mmHg 82%

    Day after tomorrow, 26 October, Thursday

    Time Temperature Precipitation Wind Pressure Humidity
    00:00 +8°C° 0 mm 3 mps 733 mmHg 83%
    01:00 +8°C° 0 mm 3 mps 733 mmHg 84%
    02:00 +7°C° 0 mm 3 mps 733 mmHg 85%
    03:00 +7°C° 0 mm 3 mps 733 mmHg 84%
    04:00 +7°C° 0 mm 3 mps 733 mmHg 84%
    05:00 +7°C° 0 mm 3 mps 733 mmHg 84%
    06:00 +7°C° 0 mm 3 mps 733 mmHg 81%
    07:00 +8°C° 0 mm 3 mps 734 mmHg 79%
    08:00 +8°C° 0 mm 2 mps 734 mmHg 76%
    09:00 +10°C° 0 mm 2 mps 734 mmHg 69%
    10:00 +12°C° 0 mm 3 mps 734 mmHg 62%
    11:00 +14°C° 0 mm 3 mps 735 mmHg 55%
    12:00 +16°C° 0 mm 2 mps 734 mmHg 53%
    13:00 +16°C° 0 mm 2 mps 734 mmHg 51%
    14:00 +17°C° 0 mm 2 mps 734 mmHg 49%
    15:00 +16°C° 0 mm 2 mps 733 mmHg 54%
    16:00 +15°C° 0 mm 1 mps 733 mmHg 59%
    17:00 +14°C° 0 mm 1 mps 733 mmHg 63%
    18:00 +13°C° 0 mm 1 mps 733 mmHg 66%
    19:00 +12°C° 0 mm 1 mps 733 mmHg 69%
    20:00 +12°C° 0 mm 1 mps 733 mmHg 71%
    21:00 +11°C° 0 mm 1 mps 733 mmHg 71%
    22:00 +11°C° 0 mm 1 mps 733 mmHg 72%
    23:00 +11°C° 0 mm 1 mps 733 mmHg 72%

    27 October, Friday

    Time Temperature Precipitation Wind Pressure Humidity
    00:00 +11°C° 0 mm 1 mps 733 mmHg 71%
    01:00 +10°C° 0 mm 1 mps 732 mmHg 71%
    02:00 +10°C° 0 mm 1 mps 732 mmHg 70%
    03:00 +10°C° 0 mm 1 mps 732 mmHg 70%
    04:00 +10°C° 0 mm 1 mps 731 mmHg 70%
    05:00 +10°C° 0 mm 1 mps 731 mmHg 69%
    06:00 +10°C° 0 mm 1 mps 731 mmHg 68%
    07:00 +11°C° 0 mm 1 mps 731 mmHg 67%
    08:00 +11°C° 0 mm 1 mps 731 mmHg 65%
    09:00 +13°C° 0 mm 1 mps 731 mmHg 59%
    10:00 +15°C° 0 mm 1 mps 730 mmHg 53%
    11:00 +18°C° 0 mm 1 mps 730 mmHg 46%
    12:00 +19°C° 0 mm 1 mps 730 mmHg 45%
    13:00 +19°C° 0 mm 1 mps 729 mmHg 43%
    14:00 +20°C° 0 mm 1 mps 728 mmHg 41%
    15:00 +19°C° 0 mm 1 mps 728 mmHg 46%
    16:00 +18°C° 0 mm 1 mps 727 mmHg 51%
    17:00 +16°C° 0 mm 1 mps 726 mmHg 56%
    18:00 +15°C° 0 mm 1 mps 726 mmHg 59%
    19:00 +14°C° 0 mm 1 mps 726 mmHg 62%
    20:00 +13°C° 0 mm 1 mps 725 mmHg 65%
    21:00 +13°C° 0 mm 1 mps 725 mmHg 66%
    22:00 +13°C° 0 mm 1 mps 725 mmHg 66%
    23:00 +13°C° 0 mm 1 mps 724 mmHg 67%

    28 October, Saturday

    Time Temperature Precipitation Wind Pressure Humidity
    00:00 +12°C° 0 mm 1 mps 724 mmHg 67%
    01:00 +12°C° 0 mm 1 mps 723 mmHg 67%
    02:00 +12°C° 0 mm 1 mps 723 mmHg 67%
    03:00 +12°C° 0 mm 1 mps 722 mmHg 67%
    04:00 +12°C° 0 mm 1 mps 722 mmHg 66%
    05:00 +12°C° 0 mm 1 mps 721 mmHg 66%
    06:00 +13°C° 0 mm 1 mps 722 mmHg 65%
    07:00 +13°C° 0 mm 1 mps 722 mmHg 64%
    08:00 +13°C° 0 mm 0 mps 722 mmHg 63%
    09:00 +15°C° 0 mm 1 mps 722 mmHg 60%
    10:00 +16°C° 0 mm 1 mps 722 mmHg 57%
    11:00 +17°C° 0 mm 2 mps 722 mmHg 54%
    12:00 +16°C° 0.1 mm 3 mps 722 mmHg 57%
    13:00 +16°C° 0.1 mm 3 mps 722 mmHg 60%
    14:00 +15°C° 0.1 mm 4 mps 722 mmHg 63%
    15:00 +13°C° 0.5 mm 4 mps 722 mmHg 68%
    16:00 +12°C° 0.5 mm 4 mps 722 mmHg 72%
    17:00 +11°C° 0.5 mm 3 mps 722 mmHg 77%
    18:00 +10°C° 0.8 mm 3 mps 722 mmHg 78%
    19:00 +10°C° 0.8 mm 3 mps 723 mmHg 79%
    20:00 +9°C° 0.8 mm 2 mps 723 mmHg 80%
    21:00 +9°C° 0.6 mm 2 mps 723 mmHg 81%
    22:00 +9°C° 0.6 mm 2 mps 723 mmHg 82%
    23:00 +9°C° 0.6 mm 1 mps 723 mmHg 83%

    29 October, Sunday

    Time Temperature Precipitation Wind Pressure Humidity
    00:00 +9°C° 0.1 mm 1 mps 723 mmHg 83%
    01:00 +9°C° 0.1 mm 1 mps 723 mmHg 83%
    02:00 +9°C° 0.1 mm 1 mps 723 mmHg 83%
    03:00 +8°C° 0 mm 1 mps 723 mmHg 83%
    04:00 +8°C° 0 mm 1 mps 723 mmHg 83%
    05:00 +8°C° 0 mm 1 mps 723 mmHg 83%
    06:00 +8°C° 0 mm 1 mps 723 mmHg 80%
    07:00 +8°C° 0 mm 1 mps 723 mmHg 78%
    08:00 +9°C° 0 mm 1 mps 723 mmHg 76%
    09:00 +10°C° 0 mm 1 mps 723 mmHg 70%
    10:00 +11°C° 0 mm 1 mps 723 mmHg 64%
    11:00 +13°C° 0 mm 2 mps 723 mmHg 57%
    12:00 +14°C° 0 mm 2 mps 722 mmHg 56%
    13:00 +14°C° 0 mm 2 mps 722 mmHg 55%
    14:00 +14°C° 0 mm 3 mps 721 mmHg 54%
    15:00 +13°C° 0 mm 3 mps 721 mmHg 59%
    16:00 +14°C° 0 mm 2 mps 721 mmHg 63%
    17:00 +13°C° 0 mm 2 mps 721 mmHg 68%
    18:00 +12°C° 0 mm 2 mps 721 mmHg 71%
    19:00 +10°C° 0 mm 2 mps 721 mmHg 75%
    20:00 +10°C° 0 mm 1 mps 721 mmHg 79%
    21:00 +10°C° 0 mm 1 mps 721 mmHg 79%
    22:00 +10°C° 0 mm 1 mps 720 mmHg 80%
    23:00 +10°C° 0 mm 1 mps 720 mmHg 80%

    30 October, Monday

    Time Temperature Precipitation Wind Pressure Humidity
    00:00 +10°C° 0 mm 1 mps 720 mmHg 81%
    01:00 +10°C° 0 mm 1 mps 720 mmHg 82%
    02:00 +9°C° 0 mm 1 mps 720 mmHg 83%
    03:00 +9°C° 0 mm 1 mps 719 mmHg 83%
    04:00 +9°C° 0 mm 1 mps 719 mmHg 83%
    05:00 +9°C° 0 mm 1 mps 719 mmHg 83%
    06:00 +10°C° 0 mm 1 mps 719 mmHg 82%
    07:00 +10°C° 0 mm 1 mps 719 mmHg 82%
    08:00 +10°C° 0 mm 1 mps 719 mmHg 81%
    09:00 +9°C° 1.6 mm 2 mps 719 mmHg 84%
    10:00 +9°C° 1.6 mm 2 mps 719 mmHg 86%
    11:00 +9°C° 1.6 mm 3 mps 719 mmHg 89%
    12:00 +8°C° 3 mm 4 mps 719 mmHg 89%
    13:00 +7°C° 3 mm 4 mps 719 mmHg 89%
    14:00 +7°C° 3 mm 5 mps 719 mmHg 90%
    15:00 +7°C° 1.5 mm 5 mps 719 mmHg 88%
    16:00 +6°C° 1.5 mm 5 mps 720 mmHg 87%
    17:00 +5°C° 1.5 mm 6 mps 720 mmHg 86%
    18:00 +6°C° 0.6 mm 5 mps 721 mmHg 84%
    19:00 +6°C° 0.6 mm 5 mps 721 mmHg 83%
    20:00 +5°C° 0.6 mm 5 mps 722 mmHg 81%
    21:00 +5°C° 0.6 mm 5 mps 722 mmHg 80%
    22:00 +5°C° 0.6 mm 5 mps 722 mmHg 79%
    23:00 +5°C° 0.6 mm 5 mps 723 mmHg 78%
    Show more